Location: Haulchin
(50.3172°N, 3.4360°E)
Time: 06:29:27
(UTC+00:00)

Meteor 2-5 Rocket - Pass Details

Date: 23 May 2024
Orbit: 832 x 911 km, 81.2° (Epoch: 19 June)

Event Time Altitude Azimuth Distance (km) Brightness Sun altitude
Exits shadow 02:43:02 - 196° (SSW) 2,806 5.9 -8.7°
Reaches altitude 10° 02:43:38 10° 197° (SSW) 2,578 5.7 -8.6°
Maximum altitude 02:49:32 77° 283° (WNW) 939 3.9 -8.0°
Drops below altitude 10° 02:55:32 10° 10° (N) 2,612 7.2 -7.3°
Sets 02:58:01 0° 12° (NNE) 3,556 8.0 -7.0°
